Wind_Speed
11 9 17 18 23 21 14 15 16 6 9 18 20 33 20 17 14 12 14 16 16 17 18 18 24 33 33 32 34 38 40 43 40 36 37 36 38 41 41 43 49 53 52 50
7 25 16 19 19 21 23 23 24 20 12 9 20 38 20 13 20 17 17 17 19 15 14 10 12 25 28 33 38 38 42 43 46 43 44 40 44 42 42 37 39 47 50 52
22 25 19 18 18 22 24 27 19 20 13 18 18 34 25 14 19 19 15 19 16 16 13 7 4 7 20 25 32 37 43 45 47 47 39 32 28 25 27 33 37 48 52 54
21 23 27 23 29 20 23 20 22 20 11 12 14 18 22 12 12 8 7 9 5 7 6 7 6 6 12 13 22 31 36 40 45 45 38 40 37 31 36 45 48 46 54 56
30 19 23 31 37 17 27 14 18 19 19 16 19 8 4 3 4 3 7 8 6 6 5 7 8 7 15 17 16 24 31 37 41 44 44 42 40 40 36 34 36 39 44 51
28 17 18 24 23 26 29 23 16 18 17 15 29 17 30 18 18 4 5 7 6 6 6 6 6 11 10 13 20 20 27 34 40 42 46 46 45 41 35 35 37 42 42 46
28 33 30 22 17 15 19 20 12 11 11 14 14 13 22 6 5 6 8 6 7 8 8 9 11 12 15 15 16 21 19 28 38 43 44 48 47 46 44 39 40 37 38 41
18 16 31 21 33 26 21 23 13 14 12 12 14 10 10 10 12 11 7 4 3 7 7 7 7 7 9 16 19 16 20 21 31 42 46 46 48 45 45 44 40 42 43 45
6 8 6 13 7 23 24 15 27 26 21 2 7 1 6 8 7 7 7 9 10 8 8 8 7 7 11 17 21 20 19 23 27 37 43 45 44 44 43 42 41 39 37 35
3 3 4 7 6 7 3 0 8 6 12 12 9 8 6 4 4 5 9 8 9 11 14 13 10 10 12 16 22 24 23 22 23 30 34 37 39 42 41 36 37 37 36 34
2 3 1 3 3 4 2 2 3 1 1 2 1 2 4 8 3 4 4 5 7 7 8 10 13 14 17 17 18 20 24 24 23 22 26 30 33 36 35 37 37 37 35 36
5 1 2 3 4 5 2 3 2 2 1 3 2 4 1 5 1 2 5 5 6 9 9 10 11 11 15 15 16 19 22 24 23 19 24 28 30 33 33 35 35 41 38 42
4 2 1 3 2 2 1 3 3 3 0 4 4 4 2 4 3 5 6 6 5 8 12 14 14 11 8 16 16 15 16 21 22 18 18 17 25 27 32 38 36 39 41 43
4 3 2 2 3 4 2 2 5 4 2 4 4 2 6 4 7 7 7 7 9 9 9 11 13 14 13 15 18 15 12 17 17 15 19 17 19 23 30 30 35 36 39 39
2 3 1 4 7 5 3 6 4 10 8 6 3 5 4 4 6 5 6 8 12 13 14 13 12 12 14 15 16 18 13 12 10 8 9 12 13 17 20 27 38 39 36 34
2 3 1 4 7 9 12 13 14 12 11 8 11 16 3 2 4 5 5 7 12 15 15 14 14 13 13 15 18 15 10 7 9 4 4 5 6 10 14 19 21 28 31 33
2 1 0 4 0 2 4 12 13 10 10 9 10 11 3 4 7 6 7 9 12 13 14 16 15 14 14 18 23 17 11 10 5 4 7 6 6 10 13 14 17 12 18 31
5 5 2 3 1 3 5 2 4 9 5 5 4 4 3 6 7 8 7 11 13 11 11 16 18 17 21 24 25 21 12 10 8 6 8 7 8 8 11 16 18 22 22 19
12 7 1 2 3 5 4 4 3 4 5 6 5 3 6 2 6 7 8 6 10 10 11 16 23 27 25 22 25 18 9 6 6 8 10 13 14 14 10 9 16 18 23 25
11 6 3 1 2 3 1 1 3 1 4 5 5 6 5 3 4 9 10 6 9 11 13 16 26 28 26 26 24 14 9 11 11 6 12 15 17 18 15 11 12 13 18 21
4 3 7 3 4 6 4 5 3 4 5 4 5 7 6 4 8 10 12 15 12 12 17 27 27 24 29 26 20 15 14 14 15 15 14 18 17 19 18 16 12 15 18 18
5 5 3 2 3 6 5 3 5 6 3 5 5 7 8 9 12 12 17 15 14 16 19 26 19 19 32 27 22 17 11 10 22 24 19 20 21 20 20 22 18 18 21 20
2 5 4 7 5 5 5 4 5 2 4 4 4 8 9 12 12 14 15 15 14 17 20 30 21 21 26 23 26 17 20 24 24 22 20 23 23 23 21 21 23 21 22 22
3 4 2 2 1 4 3 5 3 3 3 7 9 11 8 13 12 15 13 11 12 16 20 28 21 16 11 22 26 23 27 29 26 24 22 22 24 24 22 19 18 17 14 15
3 1 2 3 4 5 3 1 5 13 13 13 13 9 11 10 13 12 10 10 13 16 19 21 14 5 8 20 19 22 25 35 24 24 22 20 20 23 24 17 15 16 12 13
3 4 3 4 1 2 5 6 11 11 13 14 15 16 14 11 15 12 8 9 13 17 16 9 8 6 13 21 19 22 24 28 29 22 19 19 21 22 22 22 21 16 15 14
Wind_Direction
196 211 205 197 208 229 248 265 266 322 266 274 265 271 265 268 261 246 240 259 261 252 256 245 237 235 227 215 206 202 199 202 198 192 188 190 195 198 201 201 205 207 205 205
207 235 216 217 214 225 234 245 253 266 253 252 285 281 272 251 263 250 250 248 253 254 256 244 230 233 221 212 205 201 203 200 198 201 201 198 201 201 203 202 204 205 204 205
215 233 206 211 218 221 227 236 246 247 257 245 269 280 280 263 236 252 242 247 254 248 265 299 18 279 237 216 209 204 203 201 199 202 204 203 200 198 197 203 201 207 207 207
231 237 237 213 231 208 246 221 235 241 246 252 193 275 277 265 240 218 234 224 275 35 1 346 7 343 335 282 235 215 209 204 204 202 197 197 198 195 201 202 202 199 205 208
236 232 220 229 235 215 248 224 236 227 232 245 232 253 61 88 261 212 225 79 42 25 9 344 347 337 326 324 301 241 220 209 207 204 203 202 205 211 210 206 205 202 199 203
245 246 237 237 242 230 247 249 253 237 223 227 236 217 273 245 252 163 52 42 36 21 9 348 341 355 356 343 338 309 231 214 211 209 207 206 208 210 208 203 202 204 198 197
235 243 240 244 256 248 229 231 238 230 216 227 192 203 240 342 24 115 105 43 9 355 11 358 353 351 349 352 341 328 298 225 210 213 212 213 213 212 210 206 207 203 202 196
222 229 226 213 221 230 220 222 234 234 227 235 164 204 222 100 76 76 93 99 343 360 356 339 334 329 332 334 337 332 314 283 221 212 216 215 216 215 216 212 208 207 207 207
339 215 9 37 322 225 224 234 227 245 255 242 196 325 55 71 75 58 27 20 10 355 347 332 328 329 324 330 329 331 322 301 259 221 218 218 216 217 217 216 214 211 209 205
139 294 50 324 332 47 273 299 213 239 227 244 205 208 173 131 95 55 35 20 355 341 342 337 333 321 322 323 324 324 328 322 287 241 224 222 219 219 218 217 215 210 203 199
247 140 44 45 344 355 39 40 345 236 37 313 34 252 156 138 150 88 66 17 342 332 318 315 315 313 309 317 325 326 327 321 319 269 231 226 224 220 216 214 212 204 194 191
204 195 213 175 213 260 182 124 136 269 292 109 133 294 200 131 108 349 2 358 347 332 319 317 305 304 308 311 323 329 323 319 308 296 250 225 220 216 210 209 204 194 187 189
15 259 198 196 153 229 155 189 160 116 40 203 147 246 261 129 300 349 349 359 6 345 329 323 320 318 299 306 305 307 314 311 306 286 260 232 216 211 201 201 195 189 187 186
176 297 343 6 67 7 312 204 183 154 175 205 212 268 248 334 331 342 351 351 339 328 307 307 311 316 318 307 298 295 300 298 301 285 260 236 222 213 199 192 189 185 188 188
130 297 344 263 247 246 270 302 252 216 230 214 217 226 282 305 306 320 314 335 333 322 310 305 306 315 317 314 304 292 288 294 299 292 244 215 199 206 199 193 194 195 191 192
44 290 211 269 245 237 243 241 237 240 243 246 270 281 97 241 290 316 317 325 314 305 309 306 301 310 314 321 311 287 267 267 278 276 270 247 171 183 188 193 197 191 187 178
274 211 63 261 97 200 281 236 238 242 235 219 236 251 5 325 316 300 312 294 293 300 303 303 299 305 310 314 315 290 247 243 215 190 179 214 200 182 186 197 183 158 157 173
235 248 227 270 103 256 250 268 224 236 242 203 250 239 220 244 262 283 263 277 292 286 292 306 301 298 301 306 304 294 233 212 192 180 140 134 133 124 137 161 160 159 161 151
211 211 287 179 221 288 274 234 233 194 262 198 216 264 270 314 325 294 254 237 240 261 282 297 295 293 294 292 294 275 200 154 141 137 117 116 125 115 109 130 147 152 149 156
181 200 160 78 221 256 327 75 90 55 287 188 192 248 267 64 321 278 274 254 269 279 289 296 294 288 283 282 284 236 181 148 138 148 140 131 125 123 121 114 114 127 142 132
154 178 216 198 235 283 225 159 127 96 244 211 201 239 254 208 219 266 290 291 277 275 289 295 295 285 277 268 264 223 180 165 151 144 144 130 127 125 126 118 115 115 110 109
163 159 202 179 218 276 169 68 165 218 251 233 227 244 258 254 270 269 281 288 288 290 299 294 293 274 272 257 239 208 174 181 154 152 155 138 136 132 132 127 126 121 123 119
230 187 181 180 213 233 228 216 245 8 260 291 262 270 266 275 271 279 283 288 291 301 306 304 293 279 264 229 224 189 166 164 144 138 134 135 137 133 135 133 132 132 135 132
236 170 226 128 234 240 270 272 273 298 273 286 281 282 286 281 294 293 288 290 302 309 311 306 294 270 234 212 206 170 151 149 142 129 129 132 127 127 128 131 132 131 133 132
204 109 215 268 299 317 349 341 356 332 326 317 304 277 274 280 289 296 285 294 305 306 314 304 299 185 126 107 113 130 144 148 131 129 128 126 122 116 113 112 123 126 120 137
191 197 163 228 48 286 275 328 316 312 312 299 292 294 289 282 284 286 274 301 300 305 307 314 322 114 110 108 102 108 129 133 129 121 122 122 117 109 109 106 92 98 106 109
Height
727 726 714 718 717 714 716 718 718 722 712 711 696 670 675 673 671 674 672 667 663 660 653 656 658 659 661 665 670 674 680 685 697 702 706 713 715 721 726 730 735 740 746 753
720 701 708 705 705 712 714 710 706 707 710 712 699 659 664 665 658 658 658 657 652 651 648 647 650 652 653 654 656 662 668 676 682 691 693 699 704 709 717 726 730 734 739 745
696 677 698 702 706 707 700 699 700 703 703 701 706 670 644 647 642 641 643 642 641 643 645 646 649 649 648 649 651 654 657 664 670 677 689 698 705 711 716 719 722 724 730 736
681 669 681 689 685 695 692 683 686 692 704 704 695 673 635 639 637 639 638 639 641 651 652 651 652 652 650 649 651 651 655 659 663 671 678 683 686 690 692 695 701 709 716 724
650 661 671 674 655 678 667 677 683 681 689 694 689 693 649 636 641 636 630 647 650 654 653 652 650 652 650 648 647 648 651 653 657 661 666 671 675 680 686 693 700 705 708 713
656 653 659 656 657 661 663 673 676 673 674 677 655 682 610 640 633 630 645 647 650 652 652 651 650 650 650 648 644 642 642 644 650 654 657 660 664 671 678 682 686 691 695 701
655 652 650 656 662 658 663 672 674 671 661 643 649 667 636 618 626 636 649 654 654 651 649 649 648 645 644 646 644 639 638 637 638 643 647 651 655 661 664 669 676 684 687 689
642 642 633 635 643 644 650 656 657 649 644 639 636 647 627 647 646 649 648 650 656 654 652 651 649 648 646 644 642 641 636 633 633 632 634 640 646 651 654 659 663 669 673 676
659 632 650 654 649 641 637 642 634 645 641 642 626 636 639 648 651 652 655 649 654 657 652 650 646 645 643 641 637 634 632 629 625 624 626 629 636 641 644 649 656 660 667 672
676 664 672 672 659 655 650 645 640 638 627 621 626 625 625 653 655 652 654 654 653 653 652 648 644 641 639 638 637 631 625 623 619 618 621 624 627 631 636 644 646 650 656 663
681 670 667 673 669 663 659 658 670 667 663 646 646 639 639 647 654 653 653 653 655 656 656 652 648 643 637 632 633 630 622 617 615 614 615 619 621 624 629 632 637 640 646 652
674 673 668 664 669 671 670 667 677 674 667 668 680 662 642 644 648 647 651 650 652 653 653 650 647 642 636 630 627 626 623 620 613 611 612 611 613 617 620 623 625 629 637 642
674 674 673 664 667 666 662 669 671 678 681 670 672 671 650 644 648 652 656 654 651 652 651 646 643 639 634 630 628 624 623 621 615 612 610 608 607 610 610 614 617 622 627 633
679 675 674 666 667 668 670 667 670 682 693 679 666 662 657 653 653 657 655 654 652 651 652 648 644 639 634 630 629 622 619 620 615 608 612 609 608 609 608 609 613 617 623 630
675 676 674 668 668 673 670 671 666 670 666 677 664 660 651 652 664 662 662 655 650 649 648 643 643 640 636 631 624 622 618 616 613 610 609 607 604 608 608 608 610 613 619 627
677 692 674 674 667 669 670 667 671 667 665 655 656 655 657 663 662 660 661 656 652 650 648 645 642 639 637 631 624 619 616 612 609 606 608 612 604 607 607 607 613 612 616 621
686 685 694 688 669 671 688 665 658 654 648 651 660 650 664 662 662 658 658 656 654 652 649 644 639 635 632 627 622 617 613 611 607 607 607 611 612 610 605 610 612 617 621 621
682 680 682 685 677 710 657 657 654 653 649 654 656 659 662 664 660 659 659 654 652 649 646 641 636 629 626 624 618 613 611 609 607 610 607 608 610 609 607 615 615 618 621 623
674 681 710 709 680 665 656 658 658 654 650 654 655 657 658 659 661 652 650 649 649 646 643 639 634 626 622 620 615 611 609 607 607 609 608 605 606 609 614 622 621 622 621 627
672 676 694 716 696 692 659 659 658 655 661 654 656 656 656 662 669 652 644 645 644 642 638 634 627 620 617 613 613 606 606 602 605 609 607 606 608 611 620 624 625 627 630 630
670 675 681 693 690 681 668 661 657 676 668 653 654 655 657 662 656 641 637 638 638 635 629 624 619 613 607 608 608 601 601 600 604 607 611 606 611 616 622 625 631 631 632 635
680 690 692 682 690 695 660 663 665 662 651 650 653 653 654 651 646 644 634 632 630 627 616 611 605 599 594 597 598 594 596 601 599 602 611 611 614 618 624 626 633 634 638 643
684 673 687 682 687 665 661 661 654 655 657 654 652 650 649 644 640 636 630 625 621 616 606 600 594 585 577 582 584 584 589 596 598 605 612 614 618 620 626 632 634 641 642 649
662 659 668 663 649 655 653 655 654 655 654 653 650 646 644 641 634 629 625 621 616 608 600 592 581 568 566 569 574 577 584 589 597 605 614 621 621 625 629 637 641 646 651 651
665 660 659 660 654 654 651 653 657 653 650 648 644 643 638 636 630 626 622 617 610 602 593 585 570 564 565 564 571 576 581 586 598 607 614 622 625 627 632 643 647 651 652 654
664 659 669 671 660 662 660 659 657 654 651 646 641 634 631 630 625 621 617 612 605 597 587 585 576 567 568 570 576 579 584 588 597 607 615 621 626 630 638 645 651 656 658 658